Flag for U.S.A. Weather past 2 weeks in Durango, Colorado, U.S.A.

Now
46 °F

Overcast.


Feels Like: 45 °F
Forecast: 40 / 59 °F
Wind: 3 mph from Southwest

Location: Durango-La Plata County Airport

Current Time: May 6, 2015 at 1:37:55 AM

Latest Report: May 6, 2015 at 12:53 AM


Visibility: 10 mi

Pressure: 29.83 "Hg

Humidity: 93%

Dew point: 44 °F

Location of DurangoLocation

Historic Weather in Durango — Graph

°F

Durango temperature yesterday

Maximum temperature yesterday: 52 °F (at 4:53 PM)
Minimum temperature yesterday: 45 °F (at 4:53 AM)
Average temperature yesterday: 47 °F

Past Weeks' High & Low Weather Summary

 TemperatureHumidityPressure
High76 °F (May 1, 2:53 PM)100% (Apr 24, 6:53 AM)30.28 "Hg (Apr 24, 6:53 AM)
Low24 °F (Apr 21, 6:53 AM)11% (Apr 21, 4:53 PM)29.66 "Hg (Apr 26, 1:53 PM)
Average50 °F58%29.91 "Hg
* Reported Apr 21 12:53 AM — Midnight between May 5 and May 6, Durango, Weather by CustomWeather, © 2015

Note: Actual official high and low records may vary slightly from our data, if they occured in-between our weather recording intervals... More about our weather records

Advertising

Durango weather history for previous 24 hours

 ConditionsComfort  
Time TempWeatherWind HumidityBarometerVisibility
12:00 AM
Wed, May 6
45 °FRain. Fog.6 mph97%29.93 "Hg4 mi
10:53 PM
Tue, May 5
47 °FHeavy rain. Fog.8 mph97%29.84 "Hg3 mi
9:53 PM47 °FLight rain. Fog.8 mph97%29.84 "Hg4 mi
8:53 PM47 °FLight rain. Mostly cloudy.7 mph93%29.82 "Hg10 mi
7:53 PM48 °FCloudy.9 mph89%29.80 "Hg10 mi
6:53 PM49 °FPartly sunny.10 mph97%29.79 "Hg10 mi
5:53 PM49 °FHeavy rain. Cloudy.8 mph84%29.77 "Hg1 mi
4:53 PM52 °FLight rain. Cloudy.13 mph77%29.77 "Hg10 mi
3:53 PM51 °FMostly cloudy.14 mph80%29.78 "Hg10 mi
2:53 PM49 °FCloudy.12 mph86%29.81 "Hg10 mi
1:53 PM51 °FMore clouds than sun.10 mph83%29.81 "Hg10 mi
12:53 PM48 °FLight rain. Mostly cloudy.9 mph89%29.83 "Hg9 mi
11:53 AM47 °FLight rain. Fog.13 mph97%29.85 "Hg6 mi
11:00 AM46 °FLight rain. Fog.7 mph93%29.94 "Hg3 mi
9:53 AM47 °FOvercast.5 mph86%29.85 "Hg10 mi
8:53 AM46 °FOvercast.No wind89%29.85 "Hg10 mi
7:53 AM46 °FLight rain. Low clouds.3 mph96%29.84 "Hg10 mi
7:00 AM45 °FLight rain. Mostly cloudy.No wind100%29.94 "Hg7 mi
5:53 AM46 °FLight rain. Overcast.3 mph93%29.79 "Hg10 mi
4:53 AM45 °FLight rain. Fog.No wind97%29.80 "Hg5 mi
3:53 AM46 °FLight rain. Mostly cloudy.No wind93%29.81 "Hg10 mi
2:53 AM46 °FLight rain. Overcast.No wind93%29.83 "Hg9 mi
1:53 AM47 °FLight rain. Mostly cloudy.No wind86%29.85 "Hg9 mi
Weather by CustomWeather, © 2015

See weather overviewHow to use our weather pages